CAPE
4 2 11 9 6 12 19 27 20 4 0 0 0 0 0 0 0 0 0 0 0 0 0 0 0 0 0 0 0 0 0 0 0 0 0 0 0 1
10 9 4 2 5 10 7 27 16 13 3 0 0 0 0 0 0 0 0 0 0 0 0 0 0 0 0 0 0 0 0 0 0 0 0 0 0 0
12 15 8 6 11 21 17 15 22 25 32 2 0 0 0 0 0 0 0 0 0 0 0 0 0 0 0 0 0 0 0 0 0 0 0 0 0 0
0 0 0 0 2 0 6 27 28 20 18 8 6 0 0 0 0 0 0 0 0 0 0 0 0 0 0 0 0 0 0 0 0 0 0 0 0 0
0 0 0 0 0 0 0 2 6 1 1 5 3 0 0 0 0 0 0 0 0 0 0 0 0 0 0 0 0 0 0 0 0 0 0 0 0 0
0 0 0 0 0 0 0 0 1 3 4 2 5 2 0 0 0 0 0 0 0 0 0 0 0 0 0 0 0 0 0 0 0 0 0 0 0 0
0 0 0 0 0 0 0 0 0 10 21 14 2 0 0 0 0 0 0 0 0 0 0 0 0 0 0 0 0 0 0 0 0 0 0 0 0 0
0 0 0 0 0 0 0 0 0 7 2 3 0 0 0 0 0 0 0 0 0 0 0 0 0 0 0 0 0 0 0 0 0 0 0 0 0 0
0 0 0 0 0 0 0 1 1 0 1 0 0 0 0 0 0 0 0 0 0 2 0 0 0 0 0 0 0 0 0 0 0 0 0 0 0 0
0 0 0 0 0 0 1 0 0 0 0 0 0 0 0 0 0 0 0 1 1 4 2 0 0 0 0 0 0 0 0 0 0 0 0 0 0 0
0 0 0 0 1 1 0 0 0 0 2 3 2 1 1 1 0 0 0 0 0 0 0 0 0 0 0 0 0 0 0 0 0 0 0 0 0 0
0 0 1 0 0 0 0 0 0 0 0 0 0 0 0 0 0 0 0 0 0 0 0 0 0 0 0 0 0 0 0 0 0 0 0 0 0 0
0 0 0 0 0 0 0 0 0 0 0 0 1 2 1 0 0 0 0 0 0 0 0 0 0 0 0 0 0 0 0 0 0 0 0 0 0 0
0 0 0 2 3 2 1 3 2 0 1 1 1 1 0 0 0 0 0 0 0 0 0 0 0 0 0 0 0 0 0 0 0 0 0 0 0 0
0 3 9 9 4 2 3 1 0 0 0 0 0 0 0 1 0 0 0 0 0 0 0 0 0 0 0 0 0 0 0 0 0 0 0 0 0 0
0 0 0 0 0 0 0 0 0 0 0 0 0 0 1 1 0 0 0 0 0 0 0 0 0 0 0 0 0 0 0 0 0 0 0 0 0 0
0 0 0 0 0 0 0 0 0 0 0 0 0 1 1 1 2 0 0 0 0 0 1 0 0 0 0 0 0 0 0 0 0 0 0 0 0 0
0 0 0 0 0 0 0 0 0 0 2 1 0 1 1 1 0 0 0 0 1 2 1 1 0 0 0 0 0 0 0 0 0 0 0 0 0 0
0 0 0 0 0 0 1 0 0 0 0 0 0 0 0 1 1 1 0 0 0 0 0 0 0 0 2 1 0 0 0 0 0 0 0 0 0 0
0 0 0 0 0 0 1 1 1 0 0 0 0 0 0 0 0 0 0 0 0 0 0 0 0 1 0 0 0 0 0 0 0 0 6 1 2 5
0 0 0 0 0 0 0 0 0 0 0 0 0 0 0 0 0 0 0 0 0 0 0 0 0 1 0 0 0 0 0 0 0 0 0 0 0 0
0 0 1 0 0 0 0 0 0 0 0 0 0 0 0 0 0 0 0 0 0 0 0 0 0 0 0 2 0 0 0 0 0 0 0 0 0 0
0 0 0 0 0 0 0 0 0 0 0 0 0 0 0 0 0 0 0 0 0 0 0 0 0 0 0 1 0 0 0 0 0 0 0 1 3 6
CIN
-121 -111 -119 -161 -180 -144 -111 -74 -37 -34 -2 0 0 0 0 0 0 0 0 0 0 0 0 0 0 0 0 0 0 0 0 0 0 0 0 0 0 -0
-123 -134 -140 -153 -157 -141 -125 -97 -61 -32 -9 0 0 0 0 0 0 0 0 0 0 0 0 0 0 0 0 0 0 0 0 0 0 0 0 0 0 0
-105 -115 -123 -141 -129 -127 -112 -79 -60 -61 -14 -25 0 0 0 0 0 0 0 0 0 0 0 0 0 0 0 0 0 0 0 0 0 0 0 0 0 0
-0 -135 -7 0 -155 -2 -92 -74 -61 -61 -47 -18 -45 0 0 0 0 0 0 0 0 0 0 0 0 0 0 0 0 0 0 0 0 0 0 0 0 0
0 0 0 0 0 0 0 -51 -48 -34 -28 -36 -24 0 0 0 0 0 0 0 0 0 0 0 0 0 0 0 0 0 0 0 0 0 0 0 0 0
0 0 0 0 0 0 0 0 -30 -46 -27 -15 -33 -18 0 0 0 0 0 0 0 0 0 0 0 0 0 0 0 0 0 0 0 0 0 0 0 0
0 0 0 0 0 0 0 0 -64 -40 -27 -35 -21 -11 0 0 0 0 0 0 0 0 0 0 0 0 0 0 0 0 0 0 0 0 0 0 0 0
0 0 0 0 0 0 0 0 0 -46 -54 -40 -21 0 0 0 0 0 0 0 0 0 0 0 0 0 0 0 0 0 0 0 0 0 0 0 0 0
0 0 0 0 0 0 0 0 0 0 0 0 0 0 0 0 0 0 0 0 0 0 0 0 0 0 0 0 0 0 0 0 0 0 0 0 0 0
0 0 0 0 0 0 0 0 0 0 0 0 0 0 0 0 0 0 0 0 0 0 0 0 0 0 0 0 0 0 0 0 0 0 0 0 0 0
0 0 0 0 0 0 0 0 0 0 0 0 0 0 0 0 0 0 0 0 0 0 0 0 0 0 0 0 0 0 0 0 0 0 0 0 0 0
0 0 0 0 0 0 0 0 0 0 0 0 0 0 0 0 0 0 0 0 0 0 0 0 0 0 0 0 0 0 0 0 0 0 0 0 0 0
0 0 0 0 0 0 0 0 0 -0 0 -0 0 -0 -0 0 0 0 0 0 0 0 0 0 0 0 0 0 0 0 0 0 0 0 0 0 0 0
0 0 0 0 0 0 0 0 0 -0 -0 -0 -0 -0 -0 0 0 0 0 0 0 0 0 0 0 0 0 0 0 0 0 0 0 0 0 0 0 0
-0 -0 0 0 0 -0 0 0 0 0 0 0 -0 0 0 0 0 0 0 0 0 0 0 0 0 0 0 0 0 0 0 0 0 0 0 0 0 0
0 -0 -0 -0 0 0 0 0 0 0 0 0 -0 -0 -0 0 0 -0 0 0 0 0 0 0 0 0 0 0 0 0 0 0 0 0 0 0 0 0
0 -0 0 0 0 0 0 -0 -0 -0 0 0 -0 -0 0 0 0 0 0 0 0 0 0 -0 0 0 0 0 0 0 0 0 0 0 -0 0 0 0
-0 0 0 0 0 -0 -0 0 0 -0 0 0 -0 0 0 0 0 0 0 -0 -0 -0 0 0 0 0 0 0 0 0 -0 -0 0 0 0 0 0 0
0 0 0 0 0 -0 -0 0 -0 -0 0 0 0 0 0 0 0 0 0 0 0 -0 0 0 0 0 0 0 0 0 0 0 0 0 0 0 0 0
0 0 0 0 -0 -0 0 -0 0 0 0 -0 0 0 0 0 0 0 0 0 0 0 0 0 0 0 0 0 0 0 0 0 -1 -0 -1 -2 -1 -0
0 0 0 0 -0 -0 0 0 0 0 0 0 0 0 0 0 0 0 0 0 0 0 0 0 0 -0 0 0 0 0 0 0 0 -1 0 0 0 0
0 -0 -0 -0 0 0 0 0 0 0 0 0 0 0 0 0 0 0 0 0 0 0 0 0 0 0 0 0 0 0 0 0 0 0 -0 -0 -0 -1
0 0 0 0 0 0 0 0 0 0 0 0 0 0 0 0 0 0 0 0 0 0 0 0 0 0 0 0 0 0 0 0 0 -0 0 -2 0 -0
Wind_Speed
10 9 7 6 5 6 5 5 6 6 7 5 5 7 7 6 11 10 12 16 18 16 16 15 14 14 13 13 12 12 13 13 13 13 12 13 14 15
9 11 10 8 8 7 7 6 7 8 10 5 7 7 8 8 10 11 11 13 15 17 17 18 16 15 14 13 12 11 10 10 11 11 11 12 13 14
12 12 14 12 8 7 7 8 8 8 11 11 6 7 7 10 9 9 9 9 7 16 15 14 13 13 13 12 11 10 9 9 9 9 10 11 13 14
16 14 14 9 10 10 9 13 12 12 11 16 13 6 9 9 9 9 8 8 9 14 15 15 16 13 12 11 10 10 10 9 9 10 10 11 12 12
18 17 18 15 15 12 13 12 12 11 11 12 13 6 8 2 2 3 7 6 6 10 15 16 15 13 12 11 11 11 11 11 11 11 9 10 11 12
17 18 17 16 18 15 14 14 14 12 10 11 10 7 5 3 4 5 5 4 5 4 6 8 12 13 13 11 9 10 11 12 11 10 11 11 11 12
19 18 18 19 20 18 11 15 13 12 10 9 10 7 4 4 8 7 9 6 2 2 1 2 4 4 4 7 6 9 11 12 11 11 12 12 12 12
20 19 18 17 19 19 21 18 13 15 14 12 13 13 14 9 5 6 4 4 4 2 4 0 2 2 3 4 9 11 10 10 10 11 11 12 13 13
18 17 15 12 13 12 7 11 8 5 2 9 14 14 6 7 8 5 3 2 3 2 2 2 2 2 4 3 7 4 6 7 9 9 10 11 11 12
17 16 15 12 9 10 9 8 7 6 4 1 3 5 5 6 6 6 6 6 4 4 3 1 3 3 1 3 6 2 2 7 7 7 9 10 11 13
3 1 8 8 13 20 13 12 10 9 14 21 21 20 19 18 11 9 5 6 3 2 3 2 2 4 4 2 3 6 8 7 6 7 9 13 15 15
4 4 5 8 15 18 15 15 13 9 9 10 9 12 13 13 13 8 5 4 3 2 2 0 3 3 3 3 2 3 3 5 12 14 17 18 16 5
6 4 5 13 13 13 13 11 14 13 12 10 9 8 7 8 6 6 6 5 2 3 3 3 2 2 0 2 3 4 5 5 5 8 14 18 19 15
8 8 10 21 22 22 16 22 18 12 10 8 9 8 7 7 6 7 8 6 5 4 3 3 1 1 1 3 4 0 3 5 5 7 8 13 17 18
12 21 28 28 26 20 23 20 13 8 8 9 9 8 6 6 5 5 6 6 5 4 4 2 1 3 3 5 7 7 6 5 6 6 4 8 8 8
16 14 17 20 20 15 12 12 9 8 7 7 7 4 6 6 5 4 4 4 3 2 4 4 4 3 4 5 6 6 5 5 6 7 8 8 7 6
14 11 10 10 10 11 9 9 8 7 7 7 6 6 6 5 6 5 4 3 3 4 4 4 6 6 5 6 6 6 7 7 4 4 8 9 8 8
12 11 9 10 8 8 9 8 8 7 6 7 7 6 5 5 4 4 4 3 3 4 4 4 6 6 7 5 10 6 6 7 7 8 9 9 11 7
11 10 9 8 10 9 8 7 7 7 7 7 5 5 4 5 5 5 4 5 4 5 5 5 5 6 6 7 6 13 10 9 10 9 8 8 11 11
10 10 9 9 9 9 8 7 6 5 6 6 6 5 4 4 5 5 5 3 4 4 5 5 5 6 7 8 9 7 14 8 8 10 10 9 11 20
10 10 9 8 8 7 7 6 7 7 6 5 4 5 4 4 4 3 3 5 4 5 6 5 6 11 7 7 7 7 7 16 17 12 11 12 12 11
9 8 8 8 8 7 7 7 7 6 5 6 5 4 4 3 3 3 3 3 4 3 5 5 7 7 7 8 10 11 11 10 17 23 24 22 11 11
8 8 8 8 7 7 7 6 6 6 6 5 4 3 3 3 3 3 3 3 3 4 5 5 6 6 7 8 10 10 16 15 12 14 13 18 24 27
Wind_Direction
197 210 204 209 199 208 196 199 205 229 250 239 227 215 216 205 227 222 225 230 220 218 212 203 199 199 202 206 207 215 230 238 246 254 262 268 274 281
202 203 209 213 217 220 221 219 209 225 248 207 225 220 203 214 226 220 227 228 213 209 200 189 195 197 194 195 199 204 217 233 247 258 263 270 278 283
217 212 218 210 210 219 225 229 229 214 235 259 233 222 208 212 218 216 218 218 209 204 195 194 186 189 186 188 198 197 208 225 241 254 264 268 270 276
213 212 210 200 202 208 217 228 233 226 226 245 249 229 216 221 215 198 199 209 205 195 188 184 182 190 186 182 194 208 214 216 226 234 246 262 274 276
221 220 224 218 225 226 227 234 238 237 231 237 245 213 220 173 178 240 223 222 223 192 191 193 188 178 182 188 198 212 220 225 218 224 229 237 248 264
221 222 223 218 221 221 222 224 229 229 230 237 242 230 207 209 228 215 220 207 212 197 171 170 169 181 188 192 207 221 230 229 226 225 223 230 241 252
226 223 223 222 217 215 213 229 228 226 230 225 240 231 182 180 200 208 223 207 147 121 131 139 146 177 196 203 213 234 241 237 224 221 223 231 246 254
227 229 230 224 225 218 221 225 227 221 225 229 237 234 222 214 207 199 158 144 174 358 122 30 55 123 227 198 196 216 235 235 229 222 225 237 247 255
224 226 226 226 212 214 140 116 84 45 317 246 237 234 211 176 138 137 127 120 130 116 85 89 74 179 225 227 226 261 212 226 231 236 246 255 262 267
224 224 218 208 188 152 127 100 78 56 27 44 91 86 82 99 106 107 114 93 78 98 73 135 205 236 259 220 244 254 210 240 244 244 254 267 273 270
155 125 207 170 157 147 138 126 111 91 79 85 87 85 81 78 84 103 94 107 88 20 35 133 224 202 200 203 220 67 26 347 331 326 308 298 296 290
107 82 115 149 155 153 143 142 127 127 112 93 75 70 67 62 56 60 100 99 99 114 308 185 357 12 349 8 54 35 18 352 327 318 316 312 303 300
139 121 112 118 120 123 126 131 131 127 116 106 99 90 83 78 72 68 61 91 79 71 20 50 24 26 141 319 338 354 340 333 332 312 307 303 298 296
98 96 94 102 103 99 92 100 101 102 105 96 99 83 76 59 62 56 61 56 54 72 34 56 229 172 210 287 284 302 310 284 282 289 290 294 297 294
104 105 100 93 82 77 87 86 84 82 89 99 82 92 89 85 64 68 68 69 68 44 14 340 264 264 213 260 271 280 294 278 263 279 293 293 294 294
84 73 87 91 87 88 67 59 70 83 81 84 95 87 86 83 71 63 57 38 48 19 340 324 311 296 289 270 271 281 273 272 291 285 287 285 291 278
99 85 85 70 89 94 83 75 68 62 77 75 83 75 72 73 71 54 49 38 31 350 338 338 344 344 332 322 315 307 302 304 327 343 324 310 297 292
92 95 94 89 85 83 81 78 75 75 72 74 67 69 66 62 55 45 45 39 23 13 12 2 347 335 331 323 315 336 339 317 312 307 300 299 298 295
74 76 75 82 80 83 84 82 74 68 67 69 80 67 63 64 58 46 37 34 23 8 352 342 339 335 336 334 326 319 317 308 303 301 293 283 285 287
71 80 74 68 76 76 74 77 84 75 66 68 71 67 52 57 49 40 34 27 15 357 354 353 349 348 333 308 306 292 299 300 303 300 298 291 283 286
72 68 69 69 71 74 75 76 70 67 73 69 62 65 51 55 38 28 23 21 8 0 349 343 331 324 314 315 317 311 306 303 297 292 294 289 285 285
69 72 68 64 64 68 67 71 71 64 60 62 55 50 38 48 32 19 16 10 1 341 329 325 333 340 330 319 313 308 308 308 303 298 291 284 277 275
63 65 64 59 56 55 54 60 66 65 59 62 52 39 38 29 19 22 6 351 350 332 334 336 332 328 319 314 307 308 309 309 307 306 294 285 285 275